Home > Weather > Cuiabá > Past weeks

Flag for Brazil Past Weather in Cuiabá, Mato Grosso, Brazil — Yesterday and Last 2 Weeks

Now
70 °F

Clear.


Feels Like: 70 °F
Forecast: 64 / 86 °F
Wind: 2 mph from Southwest

Location: Cuiaba Aeroporto

Current Time: Jul 1, 2016 at 12:35:51 AM

Latest Report: Jul 1, 2016 at 12:00 AM


Visibility: 10 mi

Pressure: 30.04 "Hg

Humidity: 73%

Dew Point: 61 °F

Location of CuiabáLocation

Past Weather in Cuiabá — Graph

°F

Cuiabá Temperature Yesterday

Maximum temperature yesterday: 93 °F (at 1:00 PM)
Minimum temperature yesterday: 63 °F (at 5:00 AM)
Average temperature yesterday: 77 °F

High & Low Weather Summary for the Past Weeks

 TemperatureHumidityPressure
High97 °F (Jun 25, 1:00 PM)100% (Jun 29, 9:00 AM)30.21 "Hg (Jun 29, 9:00 AM)
Low59 °F (Jun 28, 3:00 AM)16% (Jun 25, 1:00 PM)29.92 "Hg (Jun 24, 2:00 PM)
Average73 °F71%30.07 "Hg
* Reported Jun 15 11:00 PM — Jun 30 11:00 PM, Cuiabá, Weather by CustomWeather, © 2016

Note: Actual official high and low records may vary slightly from our data, if they occured in-between our weather recording intervals... More about our weather records

Advertising

Cuiabá Weather History for the Previous 24 Hours

Scroll right to see more
 ConditionsComfort  
Time TempWeatherWind HumidityBarometerVisibility
11:00 PM
Thu, Jun 30
72 °FClear.3 mph65%30.07 "Hg10 mi
10:00 PM75 °FClear.5 mph57%30.01 "Hg10 mi
9:00 PM77 °FClear.5 mph54%30.01 "Hg10 mi
8:00 PM79 °FClear.5 mph51%30.01 "Hg10 mi
7:00 PM81 °FClear.5 mph48%30.01 "Hg10 mi
6:00 PM81 °FClear.5 mph48%30.01 "Hg10 mi
5:00 PM86 °FSunny.6 mph35%29.98 "Hg10 mi
4:00 PM91 °FSunny.3 mph24%29.98 "Hg10 mi
3:00 PM91 °FSunny.6 mph23%29.98 "Hg10 mi
2:00 PM90 °FSunny.6 mph24%29.98 "Hg10 mi
1:00 PM93 °FSunny.6 mph23%30.01 "Hg10 mi
12:00 PM88 °FSunny.8 mph29%30.04 "Hg10 mi
11:00 AM86 °FSunny.5 mph40%30.07 "Hg10 mi
10:00 AM82 °FSunny.6 mph45%30.09 "Hg10 mi
9:00 AM77 °FSunny.5 mph57%30.09 "Hg10 mi
8:00 AM68 °FSunny.6 mph83%30.09 "Hg10 mi
7:00 AM64 °FSunny.5 mph88%30.04 "Hg10 mi
6:00 AM63 °FClear.3 mph94%30.04 "Hg10 mi
5:00 AM63 °FClear.5 mph94%30.04 "Hg10 mi
4:00 AM64 °FClear.3 mph88%30.09 "Hg10 mi
3:00 AM64 °FClear.2 mph88%30.09 "Hg10 mi
2:00 AM66 °FClear.5 mph88%30.07 "Hg10 mi
1:00 AM68 °FClear.3 mph88%30.07 "Hg10 mi
12:00 AM68 °FClear.No wind88%30.07 "Hg10 mi
Weather by CustomWeather, © 2016

See weather overviewHow to use our weather pages